Location: Soapstone Prairie Natural Area
(40.9437°N, 105.0829°W)
Time: 01:45:07
(UTC-07:00)

ISS - Visible Passes

Search period start: 11 February 2016 00:00
Search period end: 21 February 2016 00:00
Orbit: 398 x 408 km, 51.6° (Epoch: 11 February)

Date Brightness Start Highest point End Pass type
(mag) Time Alt. Az. Time Alt. Az. Time Alt. Az.
11 Feb -1.0 18:58:06 10° NNW 18:59:50 14° N 18:59:54 14° N visible
12 Feb -0.9 18:05:17 10° NNW 18:06:48 13° N 18:08:20 10° NNE visible
12 Feb -0.5 19:41:30 10° NNW 19:42:01 13° NNW 19:42:01 13° NNW visible
13 Feb -1.4 18:48:56 10° NNW 18:51:11 17° NNE 18:51:30 17° NNE visible
14 Feb -1.3 19:32:12 10° NW 19:33:40 22° NNW 19:33:40 22° NNW visible
15 Feb -2.0 18:39:33 10° NW 18:42:20 25° NNE 18:43:14 22° NE visible
15 Feb 0.2 20:15:46 10° WNW 20:15:52 11° WNW 20:15:52 11° WNW visible
16 Feb -2.8 19:22:53 10° NW 19:25:30 55° NW 19:25:30 55° NW visible
17 Feb -2.9 18:30:06 10° NW 18:33:14 45° NNE 18:35:15 19° E visible
17 Feb -0.2 20:07:00 10° W 20:07:54 15° W 20:07:54 15° W visible
18 Feb -2.1 19:13:40 10° WNW 19:16:44 39° SW 19:17:46 29° S visible
19 Feb -3.3 18:20:38 10° NW 18:23:53 81° SW 18:27:07 10° SE visible
20 Feb -0.5 19:04:55 10° W 19:07:04 17° SW 19:09:14 10° S visible
